Location: Unspecified
(0.0000°N, 0.0000°E)
Time: 12:46:04
(UTC+00:00)

Courier 1B - Visible Passes

Search period start: 01 July 2015 00:00
Search period end: 11 July 2015 00:00
Orbit: 963 x 1209 km, 28.3° (Epoch: 29 June)

Date Brightness Start Highest point End Pass type
(mag) Time Alt. Az. Time Alt. Az. Time Alt. Az.
01 Jul 10.2 02:01:38 14° NE 02:01:38 14° NE 02:02:38 10° NE visible
01 Jul 9.6 03:48:30 17° NW 03:50:05 18° NNW 03:54:46 10° NNE visible
02 Jul 9.6 02:57:55 21° N 02:57:55 21° N 03:01:44 10° NNE visible
03 Jul 10.2 02:07:17 14° NNE 02:07:17 14° NNE 02:08:27 10° NNE visible
03 Jul 10.1 03:55:34 10° NNW 03:57:15 11° NNW 03:58:37 10° N visible
04 Jul 10.0 03:03:30 14° NNW 03:03:30 14° NNW 03:06:41 10° N visible
05 Jul 10.3 02:12:50 13° NNE 02:12:50 13° NNE 02:13:48 10° NNE visible
06 Jul 9.8 20:25:32 10° SSW 20:25:53 11° SSW 20:25:53 11° SSW visible
07 Jul 9.2 19:32:40 10° SSW 19:35:59 17° SSE 19:35:59 17° SSE visible
08 Jul 9.4 18:40:20 10° S 18:42:56 12° SSE 18:45:53 10° SE visible
08 Jul 9.4 20:31:13 10° SW 20:33:09 19° SSW 20:33:09 19° SSW visible
09 Jul 8.5 19:37:59 10° SSW 19:43:29 30° SSE 19:43:29 30° SSE visible
10 Jul 8.9 18:44:58 10° SSW 18:49:56 22° SSE 18:53:58 14° ESE visible
10 Jul 8.8 20:37:21 10° SW 20:40:56 33° SW 20:40:56 33° SW visible
